Погода в Седоне

США     34°52′10″N   111°45′36″W
В апреле 2022 года жителям России запретили посещать сайт meteo.paraplan.net по решению Генеральной прокуратуры. Аудитория сайта уменьшилась в 10 раз. Владельцы сайта не видят смысла в поддержке погодного сервера в таких условиях. Сайт будет закрыт в октябре.
темп.,
°C
ветер,
м/с
пор.,
м/с
влажн.,
%
обл.,
%
осадки,
мм/ч
давл.,
гПа
погр.,
м
25 сентября, вс
вс2500:00+20всв33305 0.0 101720
03:00+19св33285 0.0 101725
06:00+18всв33270 0.0 101721
09:00+22св23240 0.0 1018137
12:00+29всв33125 0.0 10162695
15:00+30всв33115 0.0 10143023
18:00+29всв55141 0.0 10131328
21:00+21всв56231 0.0 101560
26 сентября, пн
пн2600:00+19всв33240 0.0 101720
03:00+18всв33244 0.0 101619
06:00+18всв33284 0.0 101619
09:00+22всв12285 0.0 1017115
12:00+27ююв113116 0.0 1015442
15:00+30ю232281 0.0 10133174
18:00+26всв343483 0.0 1014117
21:00+23св334237 0.0 101552
27 сентября, вт
вт2700:00+20всв114989 0.0 101711
03:00+20св224752 0.0 101618
06:00+19всв335367 0.0 101621
09:00+23всв124512 0.0 1017165
12:00+27юз333343 0.1 10161730
15:00+22св8953100 0.1 1015383
18:00+21св566099 1.0 1015121
21:00+19св446398 0.3 101754
28 сентября, ср
ср2800:00+19всв226452 0.6 101822
03:00+18в226543 0.3 101820
06:00+18св4463100 1.7 101944
09:00+21всв1254100 0.0 101996
12:00+26юз233498 0.0 10181333
15:00+28зюз552798 0.0 10152064
18:00+27юв023253 0.1 1014708
21:00+20в335599 1.4 101823
29 сентября, чт
чт2900:00+19св226587 4.0 101833
03:00+18св3368100 0.4 101956
06:00+18св226570 0.4 101821
09:00+20всв2244100 0.0 101897
12:00+26юз2222100 0.0 1016982
15:00+28зюз3319100 0.0 10141496
18:00+27з332341 0.0 10121246
21:00+20вюв11525 0.0 101512